THOR ABLESTAR DEB, 128

Orbit data source: Space-Track

THOR ABLESTAR DEB, 128 is space debris in LEO originally from a launch on Thu, 29 Jun 1961 UTC launched from the Air Force Eastern Test Range (AFETR). Debris objects in space refer to the collection of defunct objects orbiting the Earth. Examples of debris include non-operational satellites, rocket bodies, and fragments generated from explosions, collisions, or faulty payload assembly.

Loading next visibility...
Identifier
128, 1961-015N
Orbit
LEO
Country
Flag of USUS
Related business
Manufacturer
Unknown
Mission
Spacecraft
Bus & Motor
Unknown
Mass
Unknown
Launch date (UTC)
1961-06-29 (65 years ago)
Launch vehicle
Unknown
Launch site
Air Force Eastern Test Range (AFETR)
Object type
Payload
Rocket body
Debris
Shape & HBR
Unknown shape, 0.3 m
Radar Cross Section
Medium (>0.1 m² and <1 m²)

Expand to show TLE details & history
Last TLE update: 13 hours ago

TLE from 13 hours ago
0 THOR ABLESTAR DEB
1 00128U 61015N   26265.12021690  .00000049  00000-0  81263-4 0  9993
2 00128  66.6745 297.5570 0100646 253.2422 105.7599 14.02054951328661
Epoch: 2026-09-22T02:53Z
TLE epoch observation values (Epoch: 2026-09-22T02:53:06.740Z)
Latitude
-0.00004°
Longitude
-106.71136°
Altitude
909.306 km
Speed
7.387 km/s
True Right ascension
19h 50m 13s
True Declination
0° 00' 00"
Sunlit
Object was in daylight at epoch
Visualization orbit readout
Latitude
Unknown
Longitude
Unknown
Altitude
Unknown
Speed
Unknown
Apparent Right ascension
Unknown
Apparent Declination
Unknown
Sunlit
N/A
Visualization observer readout
Local Sidereal Time
09:02:52
Azimuth
Unknown
Elevation
Unknown
Doppler factor
Unknown
Orbital elements
Apogee altitude
958.188 km
Perigee altitude
811.985 km
Semi-major axis
7,263.224 km
Eccentricity
0.01006
Inclination
66.6745°
RAAN
297.557°
Arg. of periapsis
253.2422°
True anomaly
106.86601°
Mean anomaly
105.7599°
Eccentric anomaly
106.31334°
Mean motion
3.5063 °/min
Orbital period
102.67 mins
BSTAR
0.000081263

Documentation

Showing up to 5 results
|